,,PA_Meas_PMT16A,,PR_Meas_QMR101_102,,RH_Meas_QMH101,,SR_Meas_QMS101,,TA_Meas_QMH101,,GenWind,,GenWind,
time,status,PA,status,PR,status,RH,status,SR,status,TA,status,DirAvg,status,SpdAvg,
2010-12-18, 00:00:04,VALID,916.475,VALID,0,VALID,92.4034,VALID,0,VALID,17.9468,VALID,145,VALID,0.930859,
2010-12-18, 00:01:04,VALID,916.456,VALID,0,VALID,92.4034,VALID,0.107441,VALID,18.0067,VALID,145,VALID,1.14141,
2010-12-18, 00:02:04,VALID,916.48,VALID,0,VALID,92.19,VALID,0,VALID,18.0067,VALID,145,VALID,1.05156,
2010-12-18, 00:03:04,VALID,916.424,VALID,0,VALID,92.19,VALID,0,VALID,17.9468,VALID,145,VALID,0.875781,
2010-12-18, 00:04:04,VALID,916.444,VALID,0,VALID,91.6792,VALID,0,VALID,17.8702,VALID,145,VALID,0.676953,
2010-12-18, 00:05:04,VALID,916.455,VALID,0,VALID,92.5483,VALID,0,VALID,17.7338,VALID,145,VALID,0.859766,
2010-12-18, 00:06:04,VALID,916.436,VALID,0,VALID,93.2115,VALID,0,VALID,17.6169,VALID,145,VALID,0.686719,
2010-12-18, 00:07:04,VALID,916.487,VALID,0,VALID,93.5546,VALID,0,VALID,17.5194,VALID,145,VALID,0.652344,
2010-12-18, 00:08:04,VALID,916.49,VALID,0,VALID,93.9052,VALID,0,VALID,17.4818,VALID,145,VALID,0.934375,
2010-12-18, 00:09:04,VALID,916.437,VALID,0,VALID,94.0958,VALID,0,VALID,17.4805,VALID,145,VALID,1.22852,
2010-12-18, 00:10:04,VALID,916.435,VALID,0,VALID,93.9891,VALID,0,VALID,17.5194,VALID,145,VALID,1.22578,
2010-12-18, 00:11:04,VALID,916.411,VALID,0,VALID,93.7299,VALID,0,VALID,17.5389,VALID,145,VALID,1.24688,
2010-12-18, 00:12:04,VALID,916.412,VALID,0,VALID,93.4402,VALID,0,VALID,17.5584,VALID,145,VALID,1.34453,
2010-12-18, 00:13:04,VALID,916.404,VALID,0,VALID,93.3487,VALID,0,VALID,17.5584,VALID,145,VALID,1.45742,
2010-12-18, 00:14:04,VALID,916.381,VALID,0,VALID,93.0209,VALID,0.107441,VALID,17.5987,VALID,145,VALID,0.752734,
2010-12-18, 00:15:04,VALID,916.385,VALID,0,VALID,93.0438,VALID,0,VALID,17.5974,VALID,145,VALID,0.635547,
2010-12-18, 00:16:04,VALID,916.386,VALID,0,VALID,93.0057,VALID,0,VALID,17.6182,VALID,145,VALID,0.265234,
2010-12-18, 00:17:04,VALID,916.398,VALID,0,VALID,93.1429,VALID,0,VALID,17.6169,VALID,145,VALID,0.333984,
2010-12-18, 00:18:04,VALID,916.37,VALID,0,VALID,93.1276,VALID,0.107441,VALID,17.6559,VALID,145,VALID,0.215234,
2010-12-18, 00:19:04,VALID,916.356,VALID,0,VALID,93.0514,VALID,0,VALID,17.6948,VALID,145,VALID,0.505078,
2010-12-18, 00:20:04,VALID,916.351,VALID,0,VALID,93.3182,VALID,0,VALID,17.7728,VALID,145,VALID,0.377344,
2010-12-18, 00:21:04,VALID,916.352,VALID,0,VALID,93.5774,VALID,0,VALID,17.8118,VALID,145,VALID,0.267188,
2010-12-18, 00:22:04,VALID,916.314,VALID,0,VALID,93.4326,VALID,0,VALID,17.8313,VALID,145,VALID,0,
2010-12-18, 00:23:04,VALID,916.296,VALID,0,VALID,92.9752,VALID,0,VALID,17.8313,VALID,145,VALID,0.294922,
2010-12-18, 00:24:04,VALID,916.301,VALID,0,VALID,92.8532,VALID,0,VALID,17.8521,VALID,145,VALID,0.592578,
2010-12-18, 00:25:04,VALID,916.307,VALID,0,VALID,92.3348,VALID,0,VALID,17.8313,VALID,145,VALID,1.21602,
2010-12-18, 00:26:04,VALID,916.254,VALID,0,VALID,91.1913,VALID,0,VALID,17.9482,VALID,145,VALID,1.53828,
2010-12-18, 00:27:04,VALID,916.231,VALID,0,VALID,89.9639,VALID,0,VALID,18.1431,VALID,145,VALID,1.16289,
2010-12-18, 00:28:04,VALID,916.252,VALID,0,VALID,89.2778,VALID,0,VALID,18.2406,VALID,145,VALID,1.14609,
2010-12-18, 00:29:04,VALID,916.248,VALID,0,VALID,89.0644,VALID,0,VALID,18.2601,VALID,145,VALID,0.71875,
2010-12-18, 00:30:04,VALID,916.232,VALID,0,VALID,89.2092,VALID,0,VALID,18.203,VALID,151,VALID,0.555469,
2010-12-18, 00:31:04,VALID,916.253,VALID,0,VALID,89.5751,VALID,0,VALID,18.1041,VALID,151,VALID,0.931641,
2010-12-18, 00:32:04,VALID,916.247,VALID,0,VALID,89.4684,VALID,0,VALID,18.047,VALID,151,VALID,0.536719,
2010-12-18, 00:33:04,VALID,916.271,VALID,0,VALID,89.4303,VALID,0,VALID,17.9496,VALID,151,VALID,0.425,
2010-12-18, 00:34:04,VALID,916.288,VALID,0,VALID,90.7339,VALID,0,VALID,17.8521,VALID,151,VALID,0.525391,
2010-12-18, 00:35:04,VALID,916.259,VALID,0,VALID,91.3895,VALID,0,VALID,17.7936,VALID,151,VALID,0.549609,
2010-12-18, 00:36:04,VALID,916.215,VALID,0,VALID,91.6716,VALID,0,VALID,17.7143,VALID,151,VALID,0.693359,
2010-12-18, 00:37:04,VALID,916.215,VALID,0,VALID,92.0299,VALID,0,VALID,17.6559,VALID,151,VALID,1.0457,
2010-12-18, 00:38:04,VALID,916.203,VALID,0,VALID,92.533,VALID,0,VALID,17.6572,VALID,151,VALID,1.4793,
2010-12-18, 00:39:04,VALID,916.215,VALID,0,VALID,92.6016,VALID,0,VALID,17.6559,VALID,151,VALID,1.12891,
2010-12-18, 00:40:04,VALID,916.157,VALID,0,VALID,92.3424,VALID,0,VALID,17.6377,VALID,151,VALID,0.928125,
2010-12-18, 00:41:04,VALID,916.168,VALID,0,VALID,92.0756,VALID,0,VALID,17.5403,VALID,151,VALID,0.723437,
2010-12-18, 00:42:04,VALID,916.19,VALID,0,VALID,92.9523,VALID,0,VALID,17.4818,VALID,151,VALID,0.851172,
2010-12-18, 00:43:04,VALID,916.171,VALID,0,VALID,93.5546,VALID,0,VALID,17.4428,VALID,151,VALID,0.875,
2010-12-18, 00:44:04,VALID,916.201,VALID,0,VALID,93.9129,VALID,0,VALID,17.4818,VALID,151,VALID,0.851563,
2010-12-18, 00:45:04,VALID,916.192,VALID,0,VALID,93.6689,VALID,0.107441,VALID,17.5389,VALID,151,VALID,0.902734,
2010-12-18, 00:46:04,VALID,916.221,VALID,0,VALID,93.3487,VALID,0,VALID,17.5792,VALID,151,VALID,0.711328,
2010-12-18, 00:47:04,VALID,916.231,VALID,0,VALID,93.0514,VALID,0,VALID,17.5987,VALID,151,VALID,0.749609,
2010-12-18, 00:48:04,VALID,916.216,VALID,0,VALID,92.7846,VALID,0,VALID,17.5792,VALID,151,VALID,0.476172,
2010-12-18, 00:49:04,VALID,916.174,VALID,0,VALID,92.7541,VALID,0,VALID,17.5,VALID,151,VALID,0.798828,
2010-12-18, 00:50:04,VALID,916.207,VALID,0,VALID,92.7998,VALID,0,VALID,17.4623,VALID,151,VALID,0.640234,
2010-12-18, 00:51:04,VALID,916.211,VALID,0,VALID,92.8685,VALID,0,VALID,17.4025,VALID,151,VALID,0.402344,
2010-12-18, 00:52:04,VALID,916.201,VALID,0,VALID,93.3182,VALID,0,VALID,17.4038,VALID,151,VALID,0.300391,
2010-12-18, 00:53:04,VALID,916.204,VALID,0,VALID,93.303,VALID,0,VALID,17.3649,VALID,151,VALID,0.135547,
2010-12-18, 00:54:04,VALID,916.199,VALID,0,VALID,93.3716,VALID,0,VALID,17.3259,VALID,151,VALID,0.0246094,
2010-12-18, 00:55:04,VALID,916.164,VALID,0,VALID,93.7909,VALID,0,VALID,17.3259,VALID,151,VALID,0.494141,
2010-12-18, 00:56:04,VALID,916.161,VALID,0,VALID,94.0348,VALID,0.107441,VALID,17.3051,VALID,151,VALID,0.464063,
2010-12-18, 00:57:04,VALID,916.147,VALID,0,VALID,94.0882,VALID,0,VALID,17.2856,VALID,151,VALID,0.635938,
2010-12-18, 00:58:04,VALID,916.174,VALID,0,VALID,94.3703,VALID,0,VALID,17.3454,VALID,151,VALID,0.854297,
2010-12-18, 00:59:04,VALID,916.164,VALID,0,VALID,94.3398,VALID,0,VALID,17.383,VALID,151,VALID,0.771875,
2010-12-18, 01:00:04,VALID,916.166,VALID,0,VALID,94.1416,VALID,0,VALID,17.4415,VALID,151,VALID,0.722266,
2010-12-18, 01:01:04,VALID,916.171,VALID,0,VALID,93.8443,VALID,0.107441,VALID,17.4818,VALID,151,VALID,0.463672,
2010-12-18, 01:02:04,VALID,916.154,VALID,0,VALID,93.6613,VALID,0,VALID,17.5208,VALID,151,VALID,0.641797,
2010-12-18, 01:03:04,VALID,916.173,VALID,0,VALID,93.4173,VALID,0.107441,VALID,17.5389,VALID,151,VALID,0.502734,
2010-12-18, 01:04:04,VALID,916.148,VALID,0,VALID,93.364,VALID,0,VALID,17.5403,VALID,151,VALID,0.798437,
2010-12-18, 01:05:04,VALID,916.156,VALID,0,VALID,93.3182,VALID,0,VALID,17.5584,VALID,151,VALID,0.996094,
2010-12-18, 01:06:04,VALID,916.161,VALID,0,VALID,93.0819,VALID,0,VALID,17.5974,VALID,151,VALID,0.796875,
2010-12-18, 01:07:04,VALID,916.152,VALID,0,VALID,92.9142,VALID,0,VALID,17.6169,VALID,151,VALID,0.498047,
2010-12-18, 01:08:04,VALID,916.141,VALID,0,VALID,92.6626,VALID,0,VALID,17.6182,VALID,151,VALID,0.269141,
2010-12-18, 01:09:04,VALID,916.128,VALID,0,VALID,92.6321,VALID,0,VALID,17.6182,VALID,151,VALID,0.423828,
2010-12-18, 01:10:04,VALID,916.117,VALID,0,VALID,92.8151,VALID,0,VALID,17.6169,VALID,151,VALID,0.766406,
2010-12-18, 01:11:04,VALID,916.132,VALID,0,VALID,92.777,VALID,0,VALID,17.6767,VALID,151,VALID,0.732031,
2010-12-18, 01:12:04,VALID,916.098,VALID,0,VALID,92.5102,VALID,0,VALID,17.6948,VALID,151,VALID,0.574609,
2010-12-18, 01:13:04,VALID,916.104,VALID,0,VALID,92.3424,VALID,0,VALID,17.7143,VALID,151,VALID,0.826953,
2010-12-18, 01:14:04,VALID,916.117,VALID,0,VALID,92.0909,VALID,0,VALID,17.7547,VALID,151,VALID,0.783203,
2010-12-18, 01:15:04,VALID,916.086,VALID,0,VALID,91.9613,VALID,0,VALID,17.7533,VALID,151,VALID,0.50625,
2010-12-18, 01:16:04,VALID,916.123,VALID,0,VALID,91.8469,VALID,0,VALID,17.7547,VALID,151,VALID,0.319141,
2010-12-18, 01:17:04,VALID,916.094,VALID,0,VALID,91.1151,VALID,0,VALID,17.7157,VALID,151,VALID,0.365625,
2010-12-18, 01:18:04,VALID,916.104,VALID,0,VALID,90.9092,VALID,0.107441,VALID,17.5598,VALID,151,VALID,0.594531,
2010-12-18, 01:19:04,VALID,916.094,VALID,0,VALID,92.1671,VALID,0,VALID,17.3844,VALID,151,VALID,0.807813,
2010-12-18, 01:20:04,VALID,916.096,VALID,0,VALID,93.0819,VALID,0.107441,VALID,17.2869,VALID,151,VALID,0.740625,
2010-12-18, 01:21:04,VALID,916.123,VALID,0,VALID,93.0895,VALID,0.107441,VALID,17.1492,VALID,151,VALID,0.632422,
2010-12-18, 01:22:04,VALID,916.153,VALID,0,VALID,93.2115,VALID,0.107441,VALID,17.0323,VALID,151,VALID,0.653125,
2010-12-18, 01:23:04,VALID,916.121,VALID,0,VALID,93.6613,VALID,0,VALID,16.9349,VALID,151,VALID,0.346094,
2010-12-18, 01:24:04,VALID,916.107,VALID,0,VALID,94.294,VALID,0,VALID,16.8959,VALID,151,VALID,0.235156,
2010-12-18, 01:25:04,VALID,916.111,VALID,0,VALID,94.8658,VALID,0,VALID,16.9349,VALID,151,VALID,0.319141,
2010-12-18, 01:26:04,VALID,916.091,VALID,0,VALID,95.1479,VALID,0,VALID,16.9933,VALID,151,VALID,0.3125,
2010-12-18, 01:27:04,VALID,916.099,VALID,0,VALID,95.125,VALID,0,VALID,17.0518,VALID,151,VALID,0.524219,
2010-12-18, 01:28:04,VALID,916.126,VALID,0,VALID,94.4922,VALID,0,VALID,17.0726,VALID,151,VALID,0.503516,
2010-12-18, 01:29:04,VALID,916.086,VALID,0,VALID,93.8214,VALID,0,VALID,16.9946,VALID,151,VALID,0.364062,
2010-12-18, 01:30:04,VALID,916.083,VALID,0,VALID,92.8837,VALID,0,VALID,16.9167,VALID,151,VALID,0.358984,
2010-12-18, 01:31:04,VALID,916.067,VALID,0,VALID,93.7451,VALID,0,VALID,16.8764,VALID,151,VALID,0.353906,
2010-12-18, 01:32:04,VALID,916.032,VALID,0,VALID,94.1111,VALID,0,VALID,16.8374,VALID,151,VALID,0.589844,
2010-12-18, 01:33:04,VALID,916.035,VALID,0,VALID,95.0488,VALID,0,VALID,16.9349,VALID,151,VALID,1.01289,
2010-12-18, 01:34:04,VALID,915.997,VALID,0,VALID,95.3079,VALID,0,VALID,17.0128,VALID,151,VALID,0.786328,
2010-12-18, 01:35:04,VALID,915.998,VALID,0,VALID,95.2622,VALID,0,VALID,17.0726,VALID,151,VALID,0.648047,
2010-12-18, 01:36:04,VALID,915.956,VALID,0,VALID,95.2088,VALID,0.107441,VALID,17.1505,VALID,151,VALID,0.739062,
2010-12-18, 01:37:04,VALID,915.926,VALID,0,VALID,95.1174,VALID,0,VALID,17.1895,VALID,151,VALID,0.755469,
2010-12-18, 01:38:04,VALID,915.913,VALID,0,VALID,94.82,VALID,0,VALID,17.2285,VALID,151,VALID,0.623047,
2010-12-18, 01:39:04,VALID,915.902,VALID,0,VALID,94.4236,VALID,0,VALID,17.2285,VALID,151,VALID,0.520312,
2010-12-18, 01:40:04,VALID,915.867,VALID,0,VALID,94.4694,VALID,0,VALID,17.2285,VALID,151,VALID,0.546094,
2010-12-18, 01:41:04,VALID,915.91,VALID,0,VALID,94.477,VALID,0,VALID,17.2479,VALID,151,VALID,0.396094,
2010-12-18, 01:42:04,VALID,915.908,VALID,0,VALID,94.4846,VALID,0.107441,VALID,17.2479,VALID,151,VALID,0.324219,
2010-12-18, 01:43:04,VALID,915.913,VALID,0,VALID,94.3855,VALID,0,VALID,17.2271,VALID,151,VALID,0.678906,
2010-12-18, 01:44:04,VALID,915.905,VALID,0,VALID,94.5837,VALID,0,VALID,17.2661,VALID,151,VALID,0.889844,
2010-12-18, 01:45:04,VALID,915.883,VALID,0,VALID,94.5685,VALID,0,VALID,17.3064,VALID,151,VALID,0.925781,
2010-12-18, 01:46:04,VALID,915.911,VALID,0,VALID,94.5761,VALID,0,VALID,17.3454,VALID,151,VALID,0.817578,
2010-12-18, 01:47:04,VALID,915.894,VALID,0,VALID,94.416,VALID,0,VALID,17.3844,VALID,151,VALID,0.791406,
2010-12-18, 01:48:04,VALID,915.893,VALID,0,VALID,94.1416,VALID,0,VALID,17.3844,VALID,151,VALID,1.08242,
2010-12-18, 01:49:04,VALID,915.857,VALID,0,VALID,93.9357,VALID,0,VALID,17.422,VALID,151,VALID,1.1543,
2010-12-18, 01:50:04,VALID,915.854,VALID,0,VALID,93.7223,VALID,0,VALID,17.5013,VALID,151,VALID,0.967578,
2010-12-18, 01:51:04,VALID,915.831,VALID,0,VALID,93.4859,VALID,0,VALID,17.4818,VALID,151,VALID,0.549219,
2010-12-18, 01:52:04,VALID,915.809,VALID,0,VALID,93.3411,VALID,0,VALID,17.4623,VALID,151,VALID,0.657422,
2010-12-18, 01:53:04,VALID,915.818,VALID,0,VALID,93.364,VALID,0,VALID,17.4623,VALID,151,VALID,0.721094,
2010-12-18, 01:54:04,VALID,915.808,VALID,0,VALID,93.2954,VALID,0,VALID,17.4025,VALID,151,VALID,0.689453,
2010-12-18, 01:55:04,VALID,915.803,VALID,0,VALID,93.6079,VALID,0,VALID,17.4623,VALID,151,VALID,0.661328,
2010-12-18, 01:56:04,VALID,915.83,VALID,0,VALID,93.6918,VALID,0,VALID,17.4623,VALID,151,VALID,0.639453,
2010-12-18, 01:57:04,VALID,915.838,VALID,0,VALID,93.7909,VALID,0,VALID,17.4805,VALID,151,VALID,0.845703,
2010-12-18, 01:58:04,VALID,915.836,VALID,0,VALID,93.6842,VALID,0,VALID,17.4805,VALID,151,VALID,0.705078,
2010-12-18, 01:59:04,VALID,915.828,VALID,0,VALID,93.3487,VALID,0,VALID,17.5013,VALID,151,VALID,0.635938,
2010-12-18, 02:00:04,VALID,915.794,VALID,0,VALID,93.2191,VALID,0,VALID,17.461,VALID,151,VALID,0.628125,
2010-12-18, 02:01:04,VALID,915.784,VALID,0,VALID,93.2191,VALID,0,VALID,17.4233,VALID,151,VALID,0.872266,
2010-12-18, 02:02:04,VALID,915.781,VALID,0,VALID,93.6613,VALID,0,VALID,17.4441,VALID,151,VALID,1.02383,
2010-12-18, 02:03:04,VALID,915.778,VALID,0,VALID,93.6384,VALID,0,VALID,17.4038,VALID,151,VALID,0.931641,
2010-12-18, 02:04:04,VALID,915.777,VALID,0,VALID,93.4859,VALID,0,VALID,17.3649,VALID,151,VALID,0.607813,
2010-12-18, 02:05:04,VALID,915.794,VALID,0,VALID,93.7299,VALID,0,VALID,17.3649,VALID,151,VALID,0.807031,
2010-12-18, 02:06:04,VALID,915.779,VALID,0,VALID,93.7375,VALID,0,VALID,17.3649,VALID,151,VALID,0.746094,
2010-12-18, 02:07:04,VALID,915.798,VALID,0,VALID,93.8747,VALID,0,VALID,17.3246,VALID,151,VALID,0.702734,
2010-12-18, 02:08:04,VALID,915.766,VALID,0,VALID,94.0196,VALID,0,VALID,17.3259,VALID,151,VALID,1.01055,
2010-12-18, 02:09:04,VALID,915.729,VALID,0,VALID,94.073,VALID,0,VALID,17.2856,VALID,151,VALID,1.06758,
2010-12-18, 02:10:04,VALID,915.73,VALID,0,VALID,94.0577,VALID,0,VALID,17.3051,VALID,151,VALID,0.599609,
2010-12-18, 02:11:04,VALID,915.736,VALID,0,VALID,93.8138,VALID,0,VALID,17.3064,VALID,151,VALID,0.501953,
2010-12-18, 02:12:04,VALID,915.742,VALID,0,VALID,93.9891,VALID,0.107441,VALID,17.2856,VALID,151,VALID,0.975391,
2010-12-18, 02:13:04,VALID,915.705,VALID,0,VALID,94.1339,VALID,0,VALID,17.3454,VALID,151,VALID,0.885156,
2010-12-18, 02:14:04,VALID,915.72,VALID,0,VALID,93.951,VALID,0,VALID,17.3844,VALID,151,VALID,0.744922,
2010-12-18, 02:15:04,VALID,915.716,VALID,0,VALID,93.7223,VALID,0,VALID,17.383,VALID,151,VALID,0.785156,
2010-12-18, 02:16:04,VALID,915.693,VALID,0,VALID,93.5698,VALID,0,VALID,17.3844,VALID,151,VALID,0.752734,
2010-12-18, 02:17:04,VALID,915.705,VALID,0,VALID,93.8138,VALID,0,VALID,17.4038,VALID,151,VALID,1.07148,
2010-12-18, 02:18:04,VALID,915.679,VALID,0,VALID,93.8519,VALID,0,VALID,17.3844,VALID,151,VALID,0.539844,
2010-12-18, 02:19:04,VALID,915.723,VALID,0,VALID,93.768,VALID,0,VALID,17.3844,VALID,151,VALID,0.454297,
2010-12-18, 02:20:04,VALID,915.691,VALID,0,VALID,93.646,VALID,0,VALID,17.3649,VALID,151,VALID,0.536328,
2010-12-18, 02:21:04,VALID,915.677,VALID,0,VALID,93.4631,VALID,0,VALID,17.3454,VALID,151,VALID,0.547656,
2010-12-18, 02:22:04,VALID,915.638,VALID,0,VALID,93.6994,VALID,0,VALID,17.3259,VALID,151,VALID,0.442187,
2010-12-18, 02:23:04,VALID,915.632,VALID,0,VALID,94.0043,VALID,0,VALID,17.3454,VALID,151,VALID,0.599219,
2010-12-18, 02:24:04,VALID,915.609,VALID,0,VALID,94.0501,VALID,0,VALID,17.3454,VALID,151,VALID,0.611328,
2010-12-18, 02:25:04,VALID,915.626,VALID,0,VALID,93.9205,VALID,0,VALID,17.3454,VALID,151,VALID,0.09375,
2010-12-18, 02:26:04,VALID,915.594,VALID,0,VALID,93.7299,VALID,0,VALID,17.3259,VALID,151,VALID,0.455469,
2010-12-18, 02:27:04,VALID,915.605,VALID,0,VALID,93.951,VALID,0,VALID,17.3064,VALID,151,VALID,0.489062,
2010-12-18, 02:28:04,VALID,915.594,VALID,0,VALID,93.9815,VALID,0,VALID,17.3064,VALID,151,VALID,0.336719,
2010-12-18, 02:29:04,VALID,915.571,VALID,0,VALID,94.012,VALID,0,VALID,17.3064,VALID,151,VALID,0.4625,
2010-12-18, 02:30:04,VALID,915.572,VALID,0,VALID,94.012,VALID,0,VALID,17.2869,VALID,151,VALID,0.764453,
2010-12-18, 02:31:04,VALID,915.556,VALID,0,VALID,94.0806,VALID,0,VALID,17.2674,VALID,151,VALID,0.746094,
2010-12-18, 02:32:04,VALID,915.565,VALID,0,VALID,94.0958,VALID,0,VALID,17.3259,VALID,151,VALID,0.697266,
2010-12-18, 02:33:04,VALID,915.547,VALID,0,VALID,94.0882,VALID,0,VALID,17.3064,VALID,151,VALID,0.428906,
2010-12-18, 02:34:04,VALID,915.556,VALID,0,VALID,94.0958,VALID,0,VALID,17.2856,VALID,151,VALID,0.690625,
2010-12-18, 02:35:04,VALID,915.523,VALID,0,VALID,94.2026,VALID,0,VALID,17.3064,VALID,151,VALID,0.910156,
2010-12-18, 02:36:04,VALID,915.51,VALID,0,VALID,94.1949,VALID,0,VALID,17.3259,VALID,151,VALID,0.790234,
2010-12-18, 02:37:04,VALID,915.495,VALID,0,VALID,94.0806,VALID,0,VALID,17.3064,VALID,151,VALID,0.782422,
2010-12-18, 02:38:04,VALID,915.473,VALID,0,VALID,94.1797,VALID,0,VALID,17.3246,VALID,151,VALID,0.916016,
2010-12-18, 02:39:04,VALID,915.466,VALID,0,VALID,94.1568,VALID,0,VALID,17.3649,VALID,151,VALID,1.01055,
2010-12-18, 02:40:04,VALID,915.473,VALID,0,VALID,94.1263,VALID,0,VALID,17.3844,VALID,151,VALID,0.884375,
2010-12-18, 02:41:04,VALID,915.45,VALID,0,VALID,93.9586,VALID,0,VALID,17.3635,VALID,151,VALID,0.589844,
2010-12-18, 02:42:04,VALID,915.441,VALID,0,VALID,93.8138,VALID,0,VALID,17.3649,VALID,151,VALID,0.642187,
2010-12-18, 02:43:04,VALID,915.447,VALID,0,VALID,93.829,VALID,0.107441,VALID,17.3246,VALID,151,VALID,0.376563,
2010-12-18, 02:44:04,VALID,915.449,VALID,0,VALID,93.8976,VALID,0,VALID,17.3259,VALID,151,VALID,0.698047,
2010-12-18, 02:45:04,VALID,915.434,VALID,0,VALID,94.0196,VALID,0,VALID,17.3259,VALID,151,VALID,0.587109,
2010-12-18, 02:46:04,VALID,915.463,VALID,0,VALID,94.0425,VALID,0,VALID,17.3454,VALID,151,VALID,0.386719,
2010-12-18, 02:47:04,VALID,915.446,VALID,0,VALID,94.0577,VALID,0,VALID,17.3454,VALID,151,VALID,0.300391,
2010-12-18, 02:48:04,VALID,915.409,VALID,0,VALID,94.0043,VALID,0,VALID,17.3259,VALID,151,VALID,0.491797,
2010-12-18, 02:49:04,VALID,915.416,VALID,0,VALID,93.9052,VALID,0,VALID,17.2869,VALID,151,VALID,0.867578,
2010-12-18, 02:50:04,VALID,915.427,VALID,0,VALID,94.1339,VALID,0,VALID,17.2869,VALID,151,VALID,0.854688,
2010-12-18, 02:51:04,VALID,915.404,VALID,0,VALID,94.4008,VALID,0,VALID,17.2869,VALID,151,VALID,0.805078,
2010-12-18, 02:52:04,VALID,915.435,VALID,0,VALID,94.416,VALID,0,VALID,17.2856,VALID,151,VALID,0.613672,
2010-12-18, 02:53:04,VALID,915.418,VALID,0,VALID,94.3321,VALID,0,VALID,17.3064,VALID,151,VALID,0.7375,
2010-12-18, 02:54:04,VALID,915.427,VALID,0,VALID,94.3626,VALID,0,VALID,17.3064,VALID,151,VALID,0.580469,
2010-12-18, 02:55:04,VALID,915.406,VALID,0,VALID,94.0043,VALID,0,VALID,17.2869,VALID,151,VALID,0.672656,
2010-12-18, 02:56:04,VALID,915.418,VALID,0,VALID,94.0272,VALID,0,VALID,17.2271,VALID,151,VALID,0.569922,
2010-12-18, 02:57:04,VALID,915.422,VALID,0,VALID,94.1187,VALID,0,VALID,17.1882,VALID,151,VALID,0.535937,
2010-12-18, 02:58:04,VALID,915.427,VALID,0,VALID,94.416,VALID,0,VALID,17.1687,VALID,151,VALID,0.586328,
2010-12-18, 02:59:04,VALID,915.462,VALID,0,VALID,94.5685,VALID,0,VALID,17.2285,VALID,151,VALID,0.766797,
2010-12-18, 03:00:04,VALID,915.462,VALID,0,VALID,94.4236,VALID,0,VALID,17.2869,VALID,151,VALID,0.833984,
2010-12-18, 03:01:04,VALID,915.45,VALID,0,VALID,94.1111,VALID,0,VALID,17.3649,VALID,151,VALID,0.924219,
2010-12-18, 03:02:04,VALID,915.424,VALID,0,VALID,93.768,VALID,0,VALID,17.4038,VALID,151,VALID,0.922656,
2010-12-18, 03:03:04,VALID,915.408,VALID,0,VALID,93.4859,VALID,0,VALID,17.4623,VALID,151,VALID,1.0582,
2010-12-18, 03:04:04,VALID,915.419,VALID,0,VALID,93.1581,VALID,0,VALID,17.5013,VALID,151,VALID,1.03008,
2010-12-18, 03:05:04,VALID,915.392,VALID,0,VALID,92.9599,VALID,0,VALID,17.5403,VALID,151,VALID,0.853516,
2010-12-18, 03:06:04,VALID,915.396,VALID,0,VALID,92.8456,VALID,0,VALID,17.5208,VALID,151,VALID,0.795313,
2010-12-18, 03:07:04,VALID,915.409,VALID,0,VALID,92.8303,VALID,0,VALID,17.5,VALID,151,VALID,0.598437,
2010-12-18, 03:08:04,VALID,915.402,VALID,0,VALID,92.8532,VALID,0,VALID,17.5013,VALID,151,VALID,0.921094,
2010-12-18, 03:09:04,VALID,915.405,VALID,0,VALID,92.8761,VALID,0,VALID,17.4805,VALID,151,VALID,0.654297,
2010-12-18, 03:10:04,VALID,915.382,VALID,0,VALID,92.8913,VALID,0,VALID,17.4818,VALID,151,VALID,0.440234,
2010-12-18, 03:11:04,VALID,915.378,VALID,0,VALID,93.1581,VALID,0,VALID,17.4428,VALID,151,VALID,0.65625,
2010-12-18, 03:12:04,VALID,915.4,VALID,0,VALID,93.425,VALID,0,VALID,17.422,VALID,151,VALID,0.894922,
2010-12-18, 03:13:04,VALID,915.407,VALID,0,VALID,93.7375,VALID,0,VALID,17.4038,VALID,151,VALID,0.951953,
2010-12-18, 03:14:04,VALID,915.389,VALID,0,VALID,93.9434,VALID,0,VALID,17.3454,VALID,151,VALID,0.942578,
2010-12-18, 03:15:04,VALID,915.399,VALID,0,VALID,94.0348,VALID,0,VALID,17.3649,VALID,151,VALID,1.13945,
2010-12-18, 03:16:04,VALID,915.399,VALID,0,VALID,93.9205,VALID,0,VALID,17.3649,VALID,151,VALID,0.966016,
2010-12-18, 03:17:04,VALID,915.375,VALID,0,VALID,93.89,VALID,0,VALID,17.3844,VALID,151,VALID,0.803516,
2010-12-18, 03:18:04,VALID,915.376,VALID,0,VALID,93.707,VALID,0,VALID,17.3844,VALID,150,VALID,1.06133,
2010-12-18, 03:19:04,VALID,915.362,VALID,0,VALID,93.5622,VALID,0,VALID,17.3844,VALID,150,VALID,1.28516,
2010-12-18, 03:20:04,VALID,915.313,VALID,0,VALID,93.4173,VALID,0,VALID,17.4233,VALID,150,VALID,0.952734,
2010-12-18, 03:21:04,VALID,915.328,VALID,0,VALID,93.2344,VALID,0,VALID,17.4428,VALID,149,VALID,0.826172,
2010-12-18, 03:22:04,VALID,915.327,VALID,0,VALID,93.1276,VALID,0,VALID,17.4623,VALID,149,VALID,0.607031,
2010-12-18, 03:23:04,VALID,915.333,VALID,0,VALID,93.0057,VALID,0,VALID,17.5013,VALID,149,VALID,1.08164,
2010-12-18, 03:24:04,VALID,915.296,VALID,0,VALID,92.9066,VALID,0,VALID,17.4818,VALID,149,VALID,0.88125,
2010-12-18, 03:25:04,VALID,915.289,VALID,0,VALID,92.7312,VALID,0,VALID,17.4818,VALID,149,VALID,1.29766,
2010-12-18, 03:26:04,VALID,915.263,VALID,0,VALID,92.655,VALID,0,VALID,17.4805,VALID,149,VALID,0.916016,
2010-12-18, 03:27:04,VALID,915.243,VALID,0,VALID,92.6016,VALID,0,VALID,17.5,VALID,149,VALID,0.844531,
2010-12-18, 03:28:04,VALID,915.27,VALID,0,VALID,92.2281,VALID,0,VALID,17.5403,VALID,149,VALID,1.10586,
2010-12-18, 03:29:04,VALID,915.257,VALID,0,VALID,92.0909,VALID,0,VALID,17.5403,VALID,149,VALID,0.863672,
2010-12-18, 03:30:04,VALID,915.269,VALID,0,VALID,91.946,VALID,0,VALID,17.5584,VALID,149,VALID,0.699609,
2010-12-18, 03:31:04,VALID,915.249,VALID,0,VALID,91.8698,VALID,0,VALID,17.5584,VALID,149,VALID,0.921484,
2010-12-18, 03:32:04,VALID,915.23,VALID,0,VALID,91.6487,VALID,0,VALID,17.5584,VALID,149,VALID,0.908984,
2010-12-18, 03:33:04,VALID,915.264,VALID,0,VALID,91.5115,VALID,0.107441,VALID,17.5779,VALID,149,VALID,1.05742,
2010-12-18, 03:34:04,VALID,915.254,VALID,0,VALID,91.1761,VALID,0,VALID,17.5974,VALID,149,VALID,1.11875,
2010-12-18, 03:35:04,VALID,915.254,VALID,0,VALID,90.7873,VALID,0,VALID,17.6559,VALID,149,VALID,1.02148,
2010-12-18, 03:36:04,VALID,915.251,VALID,0,VALID,90.5204,VALID,0.107441,VALID,17.713,VALID,149,VALID,0.816406,
2010-12-18, 03:37:04,VALID,915.265,VALID,0,VALID,90.4442,VALID,0.107441,VALID,17.7728,VALID,149,VALID,0.818359,
2010-12-18, 03:38:04,VALID,915.291,VALID,0,VALID,90.4137,VALID,0,VALID,17.8326,VALID,149,VALID,0.846484,
2010-12-18, 03:39:04,VALID,915.321,VALID,0,VALID,90.4137,VALID,0,VALID,17.8702,VALID,149,VALID,0.952734,
2010-12-18, 03:40:04,VALID,915.31,VALID,0,VALID,90.3299,VALID,0,VALID,17.8897,VALID,148,VALID,1.44531,
2010-12-18, 03:41:04,VALID,915.328,VALID,0,VALID,90.2917,VALID,0,VALID,17.9287,VALID,147,VALID,1.04961,
2010-12-18, 03:42:04,VALID,915.344,VALID,0,VALID,90.3146,VALID,0,VALID,17.8897,VALID,147,VALID,1.10859,
2010-12-18, 03:43:04,VALID,915.361,VALID,0,VALID,90.3604,VALID,0,VALID,17.8508,VALID,147,VALID,1.13125,